Regional Weather Roundup
Issued by NWS

Home | Current Version | Previous Version | Text Only | Print | Product List | Glossary On
Versions: 1 2 3 4 5 6 7 8 9 10 11 12 13 14 15 16 17 18 19 20 21 22 23 24 25 26 27 28 29 30 31 32 33 34 35 36 37 38 39 40 41 42 43 44 45 46 47 48 49 50
000
ASUS43 KDTX 301001
RWRMI
MICHIGAN HOURLY REGIONAL WEATHER ROUNDUP
NATIONAL WEATHER SERVICE DETROIT/PONTIAC MI
600 AM EDT TUE SEP 30 2014

NOTE: "FAIR" INDICATES FEW OR NO CLOUDS BELOW 12,000 FEET WITH NO
SIGNIFICANT WEATHER AND/OR OBSTRUCTION TO VISIBILITY.

MIZ047>049-052>055-059>063-066>070-074>076-081>083-301100-
SOUTHEAST LOWER MICHIGAN

CITY           SKY/WX    TMP DP  RH WIND       PRES   REMARKS
ADRIAN         CLOUDY    52  51  97 N6        29.94R
ALMA           LGT RAIN  50  48  93 N7        29.98S
ANN ARBOR      CLOUDY    52  48  86 N10       29.93R
BAD AXE        CLOUDY    50  50 100 N16       29.93R FOG
CARO           CLOUDY    52  50  95 N8        29.94R FOG
DETROIT CITY   CLOUDY    55  52  89 N8        29.93
DETROIT        CLOUDY    54  52  93 NW8       29.92R
FLINT          CLOUDY    52  48  86 N10       29.96R
GROSSE ILE     CLOUDY    55  54  94 NW16G23   29.89S
HILLSDALE      CLOUDY    51  51 100 N10       29.94R FOG
HOWELL         CLOUDY    50  49  95 NW9       29.95S FOG

CITY           SKY/WX    TMP DP  RH WIND       PRES   REMARKS
JACKSON        CLOUDY    49  47  93 VRB7      29.96R
LAMBERTVILLE   RAIN      55  54  94 NW9G17    29.92S
LANSING        CLOUDY    49  47  93 NW9       29.98R FOG
LAPEER         NOT AVBL
MASON          RAIN      49  48  95 NW7       29.96S
MONROE         LGT RAIN  55  54  94 N14       29.90S
MT. CLEMENS    CLOUDY    55  55 100 NW9       29.89S
PONTIAC        DRIZZLE   52  49  89 N14       29.92R
PORT HOPE        N/A     53  51  93 VRB5      29.91R
PORT HURON     CLOUDY    54  52  94 NW7       29.91S
TRI CITIES     CLOUDY    52  47  83 N9        29.97S
TROY           CLOUDY    55  52  88 NW9       29.93S
SAGINAW HB     CLOUDY    50  50 100 NW9       29.96R FOG
$$
MIZ043>046-050>051-056>058-064>065-071>073-077>080-301100-
SOUTHWEST LOWER MICHIGAN

CITY           SKY/WX    TMP DP  RH WIND       PRES   REMARKS
BATTLE CREEK   LGT RAIN  48  46  93 N9        29.98S FOG
BIG RAPIDS     CLOUDY    47  47 100 NW5       30.00R
COLDWATER      CLOUDY    51  50  95 N8        29.97R FOG
FREMONT        CLOUDY    47  45  95 N8        30.01S
GRAND RAPIDS   CLOUDY    49  48  97 NW10      30.00S
IONIA          CLOUDY    49  48  95 NW6       29.98S FOG
KALAMAZOO      CLOUDY    49  45  86 N14       30.00R
LUDINGTON      PTCLDY    46  44  95 N3        30.03F
MARSHALL       CLOUDY    47  46  94 NW3       29.97R
MOUNT PLEASANT CLOUDY    50  47  88 NW5       29.98R
MUSKEGON       PTCLDY    48  44  86 N10       30.03R
SOUTH HAVEN    CLOUDY    49  46  92 NE8       30.02R
$$
MIZ016>042-301100-
NORTHERN LOWER MICHIGAN

CITY           SKY/WX    TMP DP  RH WIND       PRES   REMARKS
ALPENA         CLOUDY    46  44  93 N9        29.99R
BEAVER ISLAND  CLOUDY    46  42  86 N5        30.05S
BELLAIRE       CLOUDY    45  42  91 N5        30.03R
CADILLAC       CLOUDY    45  44  97 N8        30.00R
CHARLEVOIX     CLOUDY    45  43  94 NE6       30.06R
FRANKFORT      CLOUDY    49  44  83 N8        30.04R
GAYLORD        CLOUDY    41  41 100 VRB5      30.00R FOG
GRAYLING       CLOUDY    46  45  97 N7        30.01R
HARBOR SPRINGS CLOUDY    44  41  88 NE5       30.03R
HOUGHTON LAKE  CLOUDY    46  43  89 N6        30.00R
OSCODA         CLOUDY    47  46  98 N14       29.95S FOG
PELLSTON       CLOUDY    44  41  89 NE5       30.03S
TRAVERSE CITY  CLOUDY    48  44  86 NE8       30.02R
$$
MIZ007>008-015-301100-
EASTERN UPPER MICHIGAN

CITY           SKY/WX    TMP DP  RH WIND       PRES   REMARKS
MACKINAC ISLAN CLOUDY    43  40  91 NE10      30.03R
NEWBERRY       CLOUDY    41  39  94 N5        30.05S
S. S. MARIE    CLOUDY    43  37  79 NE5       30.04R
$$
MIZ004>006-011>014-085-301100-
CENTRAL UPPER MICHIGAN

CITY           SKY/WX    TMP DP  RH WIND       PRES   REMARKS
MANISTIQUE     CLOUDY    42  39  89 N6        30.08R
SAWYER-GWINN   CLOUDY    40  37  89 N9        30.10F WCI  35
$$
MIZ001>003-009>011-084-301100-
WESTERN UPPER MICHIGAN

CITY           SKY/WX    TMP DP  RH WIND       PRES   REMARKS
IRON MOUNTAIN  CLOUDY    41  37  86 N8        30.11S
HOUGHTON       CLOUDY    41  34  76 NE5       30.14S
COPPER HARBOR    N/A     44  37  76 MISG      30.15S
$$

ABBREVIATIONS USED IN REMARKS
   TC - TEMPERATURE IN CELSIUS
  WCI - WIND CHILL INDEX
   HX - HEAT INDEX
  VSB - VISIBILITY




USA.gov is the U.S. government's official web portal to all federal, state and local government web resources and services.